Theta_e
315 314 314 314 313 311 312 312 311 310 310 312 313 313 311 310 307 304 303 305 305 308 308 310 309 310 311 312 311 313 315 315 316 315 312 311 311 309 309 308 310 311 310 310 310 311 312 312 312 312 313 313 312 311 310 309 309 309 309 308 308 307 306 306 308 309 310 311 311 309 309 310 310 310
314 314 313 313 312 312 312 312 312 311 310 310 311 311 311 311 309 306 304 304 305 308 307 308 308 309 310 310 311 310 311 313 316 313 310 310 310 308 308 308 308 307 307 307 307 310 312 312 312 312 312 313 312 311 310 309 309 309 309 308 307 306 305 306 307 309 310 310 310 309 309 310 309 309
314 313 312 312 311 311 311 311 311 311 311 309 309 309 310 311 310 308 307 305 307 308 309 308 308 308 307 308 309 309 312 314 315 311 310 309 308 310 311 309 308 307 306 306 309 310 311 312 311 311 312 312 311 311 310 309 308 309 308 307 306 305 305 306 306 307 309 309 309 309 309 309 309 309
314 313 312 312 312 310 311 310 310 310 310 309 309 308 308 308 308 310 307 307 306 307 308 308 307 307 307 306 307 308 310 314 312 310 309 308 309 311 310 307 306 305 305 305 306 306 307 309 310 311 311 311 310 310 309 308 307 307 307 306 305 304 304 305 305 306 307 308 307 307 307 308 308 308
314 313 312 311 311 311 311 310 309 309 308 308 308 308 308 307 307 309 308 307 305 306 306 307 307 306 307 306 305 307 308 310 311 311 310 310 310 310 310 310 306 304 305 304 304 303 304 305 308 309 310 310 309 308 306 305 305 306 307 305 303 303 304 304 303 304 306 306 306 306 306 306 306 307
314 313 312 311 311 311 310 309 309 309 308 308 308 308 308 307 307 306 307 306 306 305 306 306 305 306 305 306 305 306 308 308 309 309 309 310 310 310 310 310 310 305 305 304 303 303 303 302 304 305 305 304 303 303 302 302 302 304 304 302 301 303 303 303 302 303 305 305 305 304 305 304 304 306
313 312 313 311 311 311 310 310 309 309 308 308 308 307 307 307 306 305 307 307 304 304 304 304 304 304 304 305 304 305 306 307 307 308 308 308 308 308 308 309 309 305 304 303 303 303 303 303 302 302 302 302 301 301 301 301 301 301 301 300 301 301 301 301 301 302 304 304 304 304 304 303 304 306
312 312 310 309 310 311 310 308 308 308 308 308 308 307 306 307 306 306 306 308 305 304 303 304 304 304 304 303 303 304 305 305 306 307 307 307 307 307 306 306 306 305 304 303 303 303 303 303 302 302 302 302 302 301 302 301 301 300 300 300 300 300 300 300 299 300 301 302 302 303 303 302 303 305
312 311 310 309 309 310 309 308 308 307 307 307 307 306 307 306 307 307 307 307 307 305 304 303 303 303 303 303 303 303 304 304 304 305 305 305 305 306 306 306 306 304 303 303 303 302 302 303 302 302 302 302 301 301 301 301 301 301 301 301 301 300 300 299 299 299 299 299 300 301 302 301 302 304
311 311 309 309 309 309 309 307 307 307 307 306 307 307 307 307 306 306 306 307 306 306 304 303 302 302 301 301 301 302 302 303 304 303 304 304 304 305 306 306 305 305 304 304 306 303 303 303 302 301 302 301 301 301 301 301 301 301 301 301 301 300 299 299 299 298 298 298 299 299 299 300 300 302
311 310 309 308 309 309 308 307 307 307 307 308 307 308 307 306 306 305 305 305 304 304 302 300 300 300 300 300 301 301 300 301 302 302 303 304 304 304 304 305 305 304 304 303 302 302 303 303 303 302 301 301 301 301 301 301 302 302 302 301 300 299 299 299 299 298 298 298 298 297 297 297 299 301
308 309 309 309 308 309 308 308 307 307 307 306 306 304 305 305 305 304 303 303 303 302 301 300 299 299 299 299 299 299 299 301 301 300 300 301 302 303 303 303 302 303 303 302 303 303 303 303 302 301 300 300 301 301 301 302 303 302 301 300 299 299 299 298 298 298 298 298 298 297 297 296 296 298
305 305 306 305 306 310 309 309 308 307 307 307 306 305 305 305 305 303 303 302 301 301 301 299 298 298 298 298 298 300 299 300 301 299 297 299 299 299 302 304 302 301 301 302 302 303 302 302 303 302 303 304 303 303 301 302 301 301 299 299 299 299 298 298 298 298 298 298 298 297 297 297 296 296
305 306 307 311 312 312 310 308 304 302 303 306 308 306 304 305 304 303 302 301 301 301 300 299 298 298 297 297 297 297 299 299 298 299 298 299 299 301 302 301 302 301 302 300 300 302 301 301 302 301 302 303 302 302 303 302 301 300 299 298 298 298 298 298 298 298 298 298 298 297 297 296 296 295
305 305 306 307 311 310 308 305 300 300 300 301 301 301 303 305 305 303 302 301 301 302 300 297 297 298 297 298 295 297 298 296 297 297 295 295 296 298 299 299 301 301 301 300 298 301 300 300 300 301 301 302 302 302 302 299 298 298 298 298 298 298 297 297 297 297 297 297 297 297 297 296 296 295
304 303 302 302 303 302 303 303 302 302 298 297 297 297 298 299 300 301 303 302 300 300 299 297 297 297 297 297 295 295 295 298 297 295 294 295 295 295 296 297 298 301 301 300 298 298 300 298 300 300 302 302 301 301 299 297 297 297 297 297 297 297 297 297 297 297 296 296 296 296 296 296 295 295
303 302 302 303 304 307 309 305 300 302 302 299 298 299 298 297 297 296 297 299 305 303 301 299 296 296 296 296 298 299 298 297 299 298 297 294 293 294 296 296 295 301 300 300 297 296 299 298 299 299 302 301 300 301 298 297 297 297 297 297 296 296 296 296 296 296 296 295 295 295 295 295 295 294
302 302 303 304 303 302 302 301 301 302 302 303 303 303 302 303 301 296 295 295 296 300 302 300 299 297 299 300 299 301 299 299 299 299 299 297 296 295 298 299 299 300 299 300 298 295 299 297 298 299 302 302 301 301 298 296 296 296 296 296 296 296 296 296 296 296 295 295 295 295 295 295 294 294
302 302 303 304 302 301 301 302 301 302 301 301 301 301 301 301 300 300 300 301 301 301 299 301 301 300 299 300 300 300 298 302 301 301 300 300 299 298 297 295 295 297 297 299 298 296 299 296 298 300 301 301 300 301 298 296 296 296 296 295 295 295 295 295 295 295 295 295 295 295 295 294 294 293
302 303 304 303 301 301 301 302 297 300 302 301 301 300 300 299 299 299 297 295 299 301 301 301 302 301 300 298 299 297 297 298 299 301 299 297 297 298 298 300 296 298 297 297 299 297 297 296 297 299 301 299 300 302 301 297 296 296 295 295 295 295 295 295 295 295 295 295 295 295 294 294 293 294
302 303 303 303 302 301 302 298 294 295 300 301 300 300 299 299 299 299 300 295 293 293 294 294 294 293 294 294 293 292 291 296 297 299 299 299 296 298 298 297 298 300 297 297 298 297 296 298 297 298 300 299 298 301 302 302 297 296 294 294 295 294 294 294 294 294 294 294 294 294 294 294 294 295
303 304 306 304 302 301 301 294 293 295 300 301 300 299 299 299 299 299 300 300 299 294 293 293 293 293 293 293 293 293 293 292 297 302 300 299 298 298 297 297 298 298 298 298 297 297 297 297 295 297 298 297 297 298 300 299 300 297 295 295 294 294 294 294 294 294 294 294 294 294 294 294 294 298
303 305 307 305 303 303 300 292 293 294 301 301 301 300 299 298 298 299 299 300 300 301 301 301 301 300 298 300 299 300 294 293 298 301 302 298 299 299 298 297 297 297 298 296 297 297 298 297 297 295 297 297 300 297 297 300 301 301 299 298 298 295 294 294 294 294 294 294 294 294 294 293 294 297
302 304 305 304 296 296 295 292 292 292 296 302 301 300 299 298 298 299 298 301 300 300 302 300 301 302 301 299 299 299 300 300 302 301 300 300 301 300 300 298 297 296 297 298 296 298 297 295 297 295 296 294 293 299 299 300 301 300 299 298 298 296 295 294 294 294 293 294 294 294 293 293 294 296
302 303 303 304 297 294 293 293 292 293 293 297 302 300 300 301 300 297 300 302 303 300 300 301 300 299 300 300 299 299 300 301 301 300 298 300 300 301 300 298 296 296 297 299 295 298 299 297 297 294 295 294 296 296 298 297 299 298 299 297 296 297 296 297 296 297 294 294 294 293 293 293 293 294
303 303 303 303 297 292 292 291 292 292 292 292 303 301 294 293 292 300 301 301 302 300 299 298 298 298 299 299 299 299 299 300 301 301 300 299 298 299 301 300 299 297 299 299 293 299 297 297 296 296 295 294 296 295 295 297 299 297 297 298 297 297 296 295 295 296 296 296 296 295 294 293 293 293
303 303 303 303 296 291 291 291 291 292 291 294 299 296 294 293 291 297 297 298 299 299 299 300 300 299 297 297 297 297 298 298 298 298 298 297 296 296 297 298 300 300 301 299 300 299 297 296 294 295 295 295 293 294 294 294 296 299 297 297 296 297 296 296 294 294 295 295 295 294 293 293 293 293
303 302 301 297 290 291 291 291 291 291 293 297 295 294 291 291 292 299 297 297 298 296 297 299 299 299 296 295 295 296 296 296 297 297 297 296 295 295 297 297 297 298 298 298 298 297 297 297 296 296 295 294 294 293 293 296 295 295 293 295 296 297 296 295 294 294 294 295 295 295 295 294 294 294
301 295 291 290 291 290 290 290 291 291 291 290 290 290 290 296 297 297 297 298 298 298 298 297 296 295 295 295 295 295 295 296 295 295 297 296 295 296 297 297 297 297 297 296 296 295 296 296 296 295 294 294 294 295 294 294 294 294 293 292 292 294 295 295 294 293 293 294 294 294 293 293 293 293
291 291 290 290 291 291 292 296 296 296 295 291 290 289 291 298 296 296 297 298 298 298 297 296 295 296 295 294 295 294 294 294 293 293 294 295 295 295 294 296 296 296 294 294 294 294 294 294 295 295 294 294 294 294 295 293 294 295 293 292 291 293 295 293 293 293 292 292 293 293 294 294 293 292
294 293 295 294 293 293 292 293 293 295 293 296 297 297 297 296 297 296 297 298 298 297 295 295 295 294 294 294 294 292 292 292 292 292 293 294 293 293 293 294 294 294 295 293 293 293 293 293 294 294 295 295 295 295 294 293 293 292 292 292 291 288 291 292 292 291 291 291 293 294 294 293 292 292
297 296 293 294 297 296 297 297 298 298 297 296 295 296 296 296 296 298 298 297 295 295 295 294 293 293 293 292 291 291 291 291 291 292 293 293 292 291 292 294 291 290 292 293 293 294 292 293 293 293 295 295 293 294 293 293 291 290 291 291 290 291 292 290 290 290 291 291 291 291 292 292 291 291
297 297 297 296 297 296 294 295 297 297 297 295 295 296 296 296 295 295 295 295 294 294 295 294 293 292 293 292 291 291 292 291 290 291 292 291 291 291 290 289 288 288 288 289 290 291 292 292 293 292 293 293 293 292 291 291 291 291 290 289 289 289 290 290 289 289 290 289 289 290 290 291 291 291
297 296 295 295 294 295 295 294 293 295 296 295 295 294 292 296 296 295 294 294 294 292 294 294 293 292 291 291 290 290 290 291 291 289 289 291 290 290 289 288 288 287 287 288 288 288 289 291 292 294 294 294 292 292 292 290 288 289 289 289 288 288 288 289 288 289 288 288 287 287 288 289 290 291
293 292 291 292 293 293 294 292 292 292 293 291 292 293 293 296 294 292 295 294 290 290 291 290 290 289 290 290 289 289 289 288 290 289 289 288 289 288 288 287 287 287 287 288 288 288 288 288 290 292 293 293 292 291 290 290 287 287 288 287 287 287 287 288 287 287 287 287 288 286 287 288 288 290
291 292 292 291 292 294 293 291 291 294 295 293 294 293 291 291 290 293 293 292 292 290 290 288 288 288 289 289 287 287 287 287 288 288 287 287 287 287 287 286 286 286 287 287 287 288 288 288 288 289 288 288 288 287 288 289 289 286 285 284 286 286 286 287 286 287 286 286 287 286 284 284 286 288
291 293 294 294 294 294 292 293 294 294 295 295 294 294 292 291 290 292 291 290 290 288 288 287 287 287 287 286 286 286 286 287 287 286 286 286 286 287 287 286 286 286 287 287 287 287 288 288 287 287 287 286 285 284 287 290 288 288 286 284 284 285 285 285 285 284 285 285 285 285 284 285 286 287
292 294 295 295 295 296 296 296 293 293 294 293 293 292 293 292 290 290 290 288 287 287 287 287 286 286 286 287 287 287 286 286 287 287 286 286 286 286 285 285 286 286 286 286 286 285 286 286 286 286 286 284 283 283 284 287 287 285 286 285 282 283 284 284 282 281 282 284 283 284 285 284 285 284
295 294 294 295 295 296 294 293 293 293 294 293 292 292 290 289 288 287 287 287 287 287 287 286 286 286 287 287 286 287 287 287 286 285 285 285 285 285 285 285 285 285 285 284 284 284 284 284 284 284 284 283 282 283 284 284 284 283 285 284 283 282 282 283 281 281 281 280 281 282 284 286 287 285
294 294 295 295 294 294 294 294 293 294 294 293 292 291 289 286 287 287 287 287 287 286 286 286 286 287 286 286 286 286 286 285 285 285 285 284 284 284 284 283 283 283 283 282 282 283 283 282 283 283 283 284 284 285 286 285 286 284 283 283 283 283 282 283 280 278 278 280 280 279 278 281 281 282
293 294 294 294 294 294 294 294 293 292 292 290 288 288 287 287 287 287 287 287 286 287 286 286 286 286 285 286 286 286 285 284 284 284 283 283 283 282 281 281 282 282 281 281 281 281 281 282 282 281 283 285 285 287 283 280 278 278 279 280 282 283 283 283 282 279 277 279 279 278 277 277 278 279
293 293 293 293 293 293 293 291 290 288 287 287 288 287 287 287 286 287 286 286 287 286 286 286 286 285 285 285 285 285 284 283 283 282 282 282 281 281 280 281 280 281 280 279 280 280 281 283 283 283 283 283 282 280 277 277 276 276 277 278 279 281 282 282 282 282 279 278 277 276 276 277 278 276
291 291 290 289 289 289 288 288 288 288 287 287 287 287 287 287 287 287 286 286 286 286 286 285 285 285 284 284 284 284 283 282 282 281 281 281 280 280 280 280 280 280 279 279 280 280 280 281 281 281 281 280 279 279 276 276 276 276 276 276 277 278 279 281 280 280 280 279 280 278 278 276 275 272
289 288 288 288 288 288 288 288 288 288 288 287 287 287 287 286 286 286 286 286 285 285 285 284 284 284 283 283 283 282 282 281 281 280 280 280 280 279 279 278 278 278 278 278 278 278 278 279 279 279 278 277 277 277 276 275 275 275 275 275 276 276 276 277 278 277 278 278 278 278 279 279 278 278
287 287 287 287 287 287 287 287 287 287 287 286 286 286 286 286 285 285 285 285 284 284 284 283 283 283 283 282 282 281 281 281 280 280 279 279 279 278 278 278 277 277 276 276 276 277 277 277 277 278 277 277 276 275 275 275 274 274 274 274 273 274 275 274 274 273 273 275 276 277 277 277 277 278
Wind_Speed
6 6 7 6 5 4 3 3 4 4 4 6 7 8 10 9 10 8 6 5 3 4 1 4 1 1 2 2 1 2 5 4 5 2 2 2 2 3 4 4 5 6 6 6 6 7 6 6 6 8 10 12 13 14 16 17 18 18 19 20 20 20 20 20 19 19 20 20 20 20 21 21 22 23
6 6 5 5 5 4 4 4 4 4 5 6 6 5 4 5 9 7 7 6 3 4 1 0 2 1 3 3 2 1 3 6 7 3 3 2 2 4 5 5 5 6 6 6 6 7 6 6 6 7 8 9 10 12 14 16 17 18 19 19 19 20 20 20 20 20 19 20 20 20 21 22 23 23
6 7 7 5 6 5 5 4 3 3 4 4 5 4 4 4 5 7 6 6 3 2 4 1 1 2 2 2 2 2 1 6 5 3 2 1 3 6 4 6 6 6 7 8 7 7 6 6 6 6 6 7 8 11 13 15 16 17 18 17 17 18 18 19 20 21 21 21 21 21 21 22 23 24
6 7 7 6 6 5 5 4 4 4 3 4 5 5 5 4 6 6 5 5 5 0 1 4 3 4 3 2 1 0 1 1 3 2 1 1 3 3 3 4 6 6 7 8 8 7 6 6 7 6 6 6 7 9 11 13 14 15 15 15 15 15 16 18 19 21 21 21 21 22 22 22 23 23
6 7 7 6 5 6 7 5 5 4 4 3 4 4 5 5 4 6 5 6 5 2 1 2 2 1 1 1 2 2 2 1 1 1 1 1 2 3 3 3 4 5 7 8 8 7 5 5 6 7 6 6 8 9 9 9 10 13 15 14 13 14 16 17 17 18 21 22 22 22 22 22 22 22
5 6 7 5 5 4 7 6 6 6 5 5 5 3 4 5 5 2 5 4 6 5 2 3 2 2 1 2 2 2 2 2 1 0 1 1 1 2 3 3 2 4 6 6 7 6 5 2 5 6 5 5 5 7 9 10 10 12 13 13 13 14 16 17 17 18 21 22 21 22 22 22 22 21
6 6 6 5 4 3 6 5 5 5 5 4 5 4 3 5 4 2 4 6 4 7 3 1 2 2 2 2 1 2 1 1 1 3 3 3 2 2 3 2 2 3 4 5 5 7 8 6 5 6 6 6 7 8 10 11 11 12 13 14 13 14 15 15 15 17 20 21 21 22 22 22 22 22
7 7 6 5 5 5 6 5 5 4 4 5 5 5 2 4 4 3 5 5 6 4 6 0 2 1 2 1 1 1 1 2 2 2 1 2 2 2 2 2 2 4 6 4 4 6 7 7 7 7 7 6 7 8 9 10 11 12 13 13 13 13 15 16 16 16 17 19 20 21 22 22 22 23
8 8 8 8 7 6 6 4 5 5 6 4 5 5 3 4 3 4 5 5 6 7 7 4 0 0 1 0 1 2 2 1 2 2 2 2 2 2 1 1 3 5 6 5 4 6 6 8 8 8 8 7 6 7 8 10 11 12 13 13 13 13 15 15 16 16 16 17 18 19 22 21 22 23
7 7 7 8 7 7 8 6 5 5 6 5 5 5 4 3 4 5 5 6 6 7 6 5 4 1 2 2 2 3 2 2 2 0 1 1 2 3 3 2 2 3 3 3 4 5 6 7 7 8 8 8 7 7 8 9 11 12 13 13 13 13 14 15 15 16 16 16 18 18 18 19 22 24
5 6 7 7 7 7 7 7 7 6 5 5 5 5 5 4 5 5 5 6 7 6 6 3 2 3 1 1 2 1 2 3 3 1 0 1 1 1 1 3 3 3 4 3 3 3 3 4 4 7 7 7 7 8 8 9 10 11 12 12 12 13 14 15 16 16 16 16 17 18 19 19 20 23
4 4 5 6 5 6 6 7 6 7 6 4 5 2 4 5 6 6 5 6 6 6 5 3 4 1 2 1 0 0 1 1 0 2 1 0 2 2 1 0 2 4 4 5 6 4 5 6 5 5 4 4 6 7 8 8 9 11 12 13 13 14 14 15 15 16 16 16 17 17 18 19 20 21
4 3 3 3 3 3 3 4 5 5 6 7 5 3 4 5 6 6 5 6 6 4 5 4 2 3 2 1 3 3 2 2 1 1 0 1 1 1 1 0 1 2 3 4 4 3 3 4 4 4 3 4 7 5 6 5 7 11 12 13 14 14 15 15 15 15 16 16 16 17 18 19 20 20
5 4 4 3 5 6 6 5 6 6 5 4 5 7 6 6 6 7 7 6 5 6 5 5 6 5 4 3 3 3 2 1 1 1 1 1 2 1 0 1 0 2 3 5 5 4 1 3 4 3 3 4 3 3 4 4 7 10 12 12 12 13 14 14 15 15 15 15 16 17 18 19 19 20
6 5 4 4 5 5 5 5 6 5 4 5 5 7 6 6 9 8 6 6 6 6 5 4 4 4 5 3 2 3 2 1 1 1 1 1 1 2 1 1 2 1 4 3 3 5 2 3 4 4 3 3 4 4 4 9 11 11 12 12 12 13 13 14 15 15 16 15 15 15 17 18 19 20
6 5 4 3 2 2 4 5 5 5 5 5 6 7 6 5 4 6 8 7 5 5 6 5 5 5 5 4 3 3 2 3 1 1 1 1 2 2 2 2 1 1 2 3 3 5 1 2 2 4 4 3 3 4 7 10 10 11 11 11 12 13 13 14 15 16 16 16 15 14 15 17 18 19
6 4 4 3 3 2 6 5 4 4 5 6 7 6 6 4 5 5 4 5 8 8 6 6 5 5 5 5 4 4 5 3 3 2 1 1 1 1 2 3 2 2 1 1 2 3 3 3 4 4 4 3 4 5 6 9 10 10 11 11 11 12 13 14 15 16 17 17 17 16 15 16 18 19
6 6 5 5 4 3 4 4 5 5 5 5 5 4 3 3 4 4 6 8 8 6 7 8 7 5 5 6 4 4 5 5 3 3 2 2 3 3 4 3 3 2 1 1 0 2 2 2 3 4 5 3 5 3 5 8 9 10 10 11 12 12 13 14 14 15 16 17 17 18 17 17 18 19
6 6 5 5 5 4 4 3 5 6 5 5 5 4 4 4 3 3 3 4 4 4 4 5 6 6 4 3 4 4 3 2 2 2 2 2 1 1 2 2 3 3 2 3 2 2 3 2 3 3 4 5 5 4 6 6 8 9 10 11 12 13 13 13 14 15 15 16 17 18 18 17 18 19
5 5 6 6 6 5 5 5 6 5 5 6 6 5 4 3 3 4 3 4 3 4 5 5 5 4 4 3 5 6 5 2 2 2 3 2 1 1 1 1 3 1 1 2 2 1 2 1 1 4 4 3 4 5 4 5 8 10 10 10 11 13 13 14 14 15 15 15 16 16 18 18 18 18
5 6 5 6 6 6 5 5 7 7 7 6 6 5 4 3 4 4 3 6 8 7 8 7 7 6 5 4 4 5 4 4 4 4 2 0 1 3 3 3 4 3 1 2 3 3 2 0 0 4 3 3 4 5 6 4 6 9 10 10 11 12 12 14 14 15 15 15 15 15 15 17 19 19
4 5 8 7 7 6 5 6 7 6 6 6 5 5 5 4 4 2 2 3 4 7 7 7 5 4 4 3 4 5 5 4 3 2 1 1 2 1 0 3 2 5 2 1 4 1 2 1 1 2 4 3 3 4 4 3 6 7 6 9 10 11 12 13 14 14 15 15 15 14 13 14 16 12
4 4 5 7 6 6 6 9 6 4 3 5 5 5 5 4 4 3 1 3 3 2 2 0 1 1 2 2 2 2 5 5 4 3 2 2 2 2 2 2 3 4 2 0 3 3 2 2 0 0 4 3 3 2 3 4 4 4 3 5 7 10 11 13 13 14 14 14 14 13 13 12 11 8
4 4 5 6 7 7 8 8 6 3 3 4 4 4 4 4 4 3 2 1 1 2 2 1 1 3 2 1 1 1 2 4 5 4 3 3 3 3 3 2 2 3 3 1 2 2 2 1 2 1 1 3 3 2 3 6 5 5 4 6 6 8 9 9 10 13 14 15 14 13 13 14 10 7
7 5 5 4 6 7 6 7 6 4 2 2 3 1 4 4 3 4 3 3 2 1 0 2 2 2 3 3 3 3 3 3 2 3 3 4 4 4 4 3 3 5 5 2 3 0 2 1 3 1 0 2 3 4 3 3 4 3 4 4 5 7 6 7 7 8 11 15 15 15 15 15 13 10
6 7 6 6 8 9 7 6 5 4 4 0 1 0 4 3 4 4 1 0 1 1 0 1 2 2 2 3 3 3 4 3 2 2 3 4 5 5 4 4 4 3 1 1 3 0 1 2 1 2 1 1 3 1 4 4 4 3 4 5 5 5 4 6 7 8 8 9 9 12 14 15 14 15
8 6 7 6 9 10 9 7 4 2 3 4 5 5 4 3 2 1 2 1 1 1 0 1 1 0 1 2 2 3 3 3 3 3 2 2 2 4 4 4 3 4 3 1 2 1 2 2 1 1 3 1 3 4 2 2 4 4 5 6 6 4 2 3 7 7 8 8 8 13 12 14 15 15
6 7 5 6 10 9 8 7 6 6 6 2 1 2 4 5 3 2 3 1 1 2 1 1 1 1 2 2 2 3 3 3 5 5 3 2 1 2 2 2 2 2 3 3 1 1 2 2 2 1 3 3 3 3 5 3 3 2 5 7 6 5 4 5 6 7 8 8 7 8 8 10 11 13
6 8 13 13 11 10 12 10 7 6 6 8 8 6 7 6 3 3 2 2 3 3 3 2 1 2 3 2 2 4 4 4 3 3 2 2 2 2 1 1 0 1 1 1 1 1 1 1 2 2 1 2 3 3 2 4 3 4 5 7 7 9 7 8 8 8 9 8 8 8 8 8 10 10
14 15 14 15 14 11 9 7 6 4 3 3 4 6 6 4 3 3 3 3 4 4 3 2 1 2 3 3 3 2 3 4 5 4 3 3 5 5 3 3 3 1 1 2 2 3 3 2 1 2 2 3 3 4 2 2 3 4 5 6 7 6 3 10 9 8 9 10 9 8 7 8 9 10
10 11 10 9 10 9 10 9 7 6 5 5 3 2 2 3 3 4 4 5 4 3 3 3 2 2 1 0 5 5 5 4 4 4 3 3 4 4 3 4 4 4 3 3 3 4 4 3 2 1 3 5 4 2 1 0 2 5 6 6 7 6 8 8 8 9 10 10 9 7 7 9 10 11
8 9 9 10 7 7 6 5 3 3 3 4 3 3 4 3 3 3 5 5 4 3 3 3 3 4 5 5 5 4 4 3 3 4 4 3 3 4 3 2 3 3 5 7 6 5 5 4 4 2 2 3 3 4 3 1 4 5 5 6 6 5 6 8 8 8 10 9 8 8 7 8 10 10
8 8 8 7 6 6 7 5 4 4 4 3 3 4 4 4 4 4 4 5 5 3 5 6 6 5 5 4 3 1 2 2 3 4 2 2 2 2 2 4 3 3 5 5 6 7 8 7 6 3 1 3 2 3 4 5 7 6 6 6 6 7 8 8 8 9 9 8 8 8 8 7 8 9
10 8 8 7 6 6 5 6 5 5 4 4 4 3 2 4 6 5 5 5 5 4 6 6 6 4 4 3 2 1 1 1 2 3 3 2 2 3 4 4 4 3 2 3 5 6 7 7 7 3 1 5 8 8 6 6 7 7 7 6 7 7 8 8 9 10 9 7 7 7 7 8 8 10
8 7 7 5 5 5 5 6 5 5 5 4 5 4 4 4 5 5 5 5 4 5 5 3 4 4 4 3 1 1 2 2 1 3 3 2 3 4 4 5 4 5 5 5 6 6 6 7 6 5 5 3 4 8 14 9 5 6 4 6 6 7 8 8 8 8 9 8 8 7 7 7 8 9
5 6 7 6 6 5 6 6 5 5 6 5 5 6 5 4 3 4 4 3 3 3 4 3 3 3 3 2 2 2 2 3 3 3 4 4 4 3 4 5 3 3 4 5 5 5 5 6 6 6 6 6 5 4 3 13 15 7 7 6 7 7 7 8 8 8 9 9 8 8 7 9 8 9
7 6 6 6 5 6 6 6 6 5 5 5 4 6 6 4 4 3 3 4 4 2 2 3 2 1 2 3 4 2 2 3 3 3 4 3 3 4 5 4 4 3 5 5 5 5 6 6 6 6 5 3 5 4 4 2 13 18 10 8 8 8 9 9 9 9 9 9 9 9 8 9 9 9
7 6 6 5 5 5 5 5 5 5 4 4 6 6 5 3 3 3 3 5 4 3 4 3 2 3 3 3 3 3 3 3 3 3 4 4 3 4 5 4 4 4 4 4 5 6 6 6 6 5 4 3 3 5 5 3 4 10 18 12 9 9 9 9 10 9 9 9 9 9 8 7 8 9
6 6 6 5 3 4 5 4 5 5 4 5 5 4 4 4 4 4 5 4 5 5 4 4 4 3 3 3 2 3 3 3 4 3 4 4 4 4 4 4 4 3 3 5 5 6 6 7 6 6 5 4 4 5 5 5 4 6 10 19 12 9 11 10 9 9 9 9 9 8 7 7 5 10
5 5 5 4 3 3 3 3 3 4 4 4 4 3 4 4 5 5 5 4 5 4 4 4 3 3 4 3 3 4 5 6 5 4 4 4 4 4 4 3 3 3 3 5 5 6 7 7 7 7 6 5 6 4 2 1 0 4 5 11 20 14 10 8 9 8 8 9 8 8 8 8 8 9
5 5 4 3 3 3 3 4 4 3 4 4 5 5 5 5 6 5 4 5 4 5 5 3 4 5 3 3 3 3 5 4 4 4 4 4 4 4 4 4 5 4 4 5 5 6 8 7 8 9 6 5 4 1 2 5 5 7 7 8 12 18 19 17 10 10 9 9 9 8 9 9 8 8
5 5 5 5 5 4 4 4 4 5 5 5 5 6 6 6 6 7 8 6 7 5 4 4 4 4 4 3 3 4 6 5 4 4 4 4 4 4 5 5 5 4 5 5 6 6 5 6 7 6 6 6 5 5 6 4 5 6 6 7 8 12 14 17 18 15 13 12 10 11 10 9 8 8
6 5 5 4 4 4 4 5 5 6 6 6 6 6 6 6 5 6 5 4 4 4 4 4 4 4 4 4 4 4 5 5 5 5 5 5 4 4 5 5 5 5 4 4 4 4 5 7 7 6 5 6 6 5 5 4 4 5 6 7 8 8 8 11 14 14 14 20 19 14 11 10 9 10
5 6 5 4 4 5 5 5 7 6 7 6 5 5 5 6 6 5 4 4 4 4 4 4 4 5 5 5 5 6 6 5 5 5 5 5 5 5 5 4 5 4 4 4 4 5 5 5 6 5 6 7 6 6 6 5 5 6 6 6 7 8 8 8 7 8 7 13 19 18 20 19 16 13
6 6 6 6 5 5 5 5 6 7 7 6 6 6 6 6 6 5 4 4 5 5 5 5 5 5 5 4 5 6 5 5 5 5 4 5 4 5 5 4 4 5 5 4 4 4 5 4 4 4 5 6 6 6 5 5 5 5 6 7 8 8 7 8 8 9 8 6 14 19 17 17 17 15
Wind_Direction
145 137 146 143 143 147 121 111 130 131 142 170 170 173 166 161 148 162 179 207 167 206 197 153 134 330 93 79 105 172 211 217 216 215 216 235 253 296 321 337 337 346 340 341 335 328 339 356 3 3 16 21 17 10 9 6 1 0 2 0 358 356 354 353 352 353 358 356 354 353 351 349 347 346
141 131 125 133 133 142 138 143 142 139 142 148 167 165 135 155 156 156 162 192 205 156 142 199 127 47 50 21 349 326 219 220 211 201 223 246 279 310 315 324 325 326 323 318 312 310 312 325 338 346 359 9 7 3 4 1 355 354 354 354 352 352 351 351 352 352 354 354 352 350 350 348 348 347
138 140 138 136 133 144 140 129 124 129 130 128 132 142 147 139 133 148 139 137 216 157 160 64 11 115 56 12 329 325 220 212 197 203 234 277 317 311 309 313 313 309 303 300 295 299 306 304 302 313 328 349 352 351 353 350 346 345 346 348 347 346 345 346 349 350 351 351 350 349 347 348 348 347
140 140 143 150 146 144 124 122 129 130 117 128 123 128 134 141 145 140 139 142 152 358 155 120 91 85 93 56 44 17 42 184 199 226 244 333 326 317 298 301 303 321 325 317 304 302 291 283 283 296 313 330 334 336 337 337 335 337 339 342 342 339 339 342 345 346 349 351 350 348 347 346 346 346
138 146 145 153 154 147 134 138 130 124 125 106 92 111 108 121 155 145 134 128 120 70 27 89 111 45 168 48 6 45 66 90 235 245 4 6 295 285 280 288 320 347 326 326 323 325 299 267 276 289 303 320 323 321 319 319 323 328 333 336 336 334 337 340 340 339 346 350 350 348 348 347 344 344
147 148 138 146 157 167 138 143 142 142 138 132 124 134 132 144 155 172 117 124 138 142 101 100 65 69 29 131 3 54 42 54 17 155 2 351 326 305 311 308 329 327 321 328 343 357 5 283 272 289 301 307 306 303 303 308 313 317 323 329 331 331 334 336 337 340 345 348 348 349 349 348 345 343
140 137 138 146 148 144 134 148 141 137 141 144 139 139 134 135 137 151 135 133 115 139 126 79 78 59 32 84 20 349 39 38 48 97 60 11 352 3 349 354 357 336 345 350 360 31 33 22 344 324 319 309 300 296 296 299 305 311 318 322 326 331 331 332 334 337 341 345 347 348 349 348 345 345
149 146 138 157 160 161 146 151 142 142 143 149 143 137 135 131 127 120 124 126 128 143 129 247 136 114 89 53 29 324 28 33 37 54 37 13 13 3 4 13 9 1 351 344 14 35 32 19 4 356 341 323 304 295 295 297 301 307 312 316 322 328 329 329 331 333 336 340 342 344 347 346 345 348
152 153 158 158 161 157 143 154 150 155 160 152 140 139 136 117 112 87 113 120 124 132 137 130 63 66 146 133 70 38 70 51 27 16 18 6 357 341 319 7 19 352 340 330 359 28 22 11 1 355 355 349 324 302 297 298 300 304 308 312 321 327 327 326 327 329 333 337 341 342 345 344 345 349
154 154 151 153 158 158 156 163 157 167 161 144 136 132 122 115 99 95 96 114 111 112 119 132 135 25 125 87 34 21 37 119 150 219 304 307 356 8 2 23 20 356 347 340 347 6 5 2 354 352 352 352 346 330 313 304 302 302 305 312 319 324 324 324 324 327 330 335 339 341 341 341 347 350
145 146 149 156 164 162 154 150 166 164 157 151 156 153 136 126 107 96 104 116 118 126 127 87 97 125 74 132 133 79 34 51 66 71 306 214 1 33 18 360 1 11 350 352 348 342 348 356 351 350 347 347 344 335 323 313 308 304 308 314 320 323 324 324 325 327 330 333 337 339 340 343 346 349
104 128 144 155 157 153 154 153 162 162 156 146 144 130 123 126 116 115 119 117 125 132 132 131 156 169 167 149 47 166 101 141 115 48 59 263 325 345 314 199 3 350 1 357 334 339 345 354 347 352 341 336 333 331 327 321 315 316 317 318 321 322 323 324 325 328 331 332 334 336 339 342 346 348
80 87 107 101 97 118 134 155 162 168 155 148 150 164 144 127 117 114 120 127 130 127 123 123 114 143 127 151 154 121 86 129 128 290 269 217 241 275 282 196 155 26 349 336 331 328 353 326 344 336 333 346 347 338 334 318 319 325 323 320 322 323 324 324 327 329 329 330 330 333 338 342 345 345
110 108 92 118 135 135 139 138 140 143 160 161 166 162 155 144 127 135 132 142 150 143 151 164 157 146 166 170 153 136 161 167 231 174 309 31 317 326 313 304 43 339 13 6 342 316 348 340 325 351 332 326 346 331 331 331 323 321 324 327 330 329 326 327 329 329 329 328 329 331 335 341 343 344
111 74 70 74 101 105 103 100 117 131 149 154 155 158 164 166 152 137 141 155 158 159 155 158 170 170 165 180 166 164 141 196 157 153 144 167 35 74 80 8 310 90 19 16 334 313 9 9 343 319 311 314 331 329 313 317 324 328 333 336 336 332 331 331 331 330 330 330 330 331 334 338 342 343
113 97 71 47 38 69 108 107 96 90 91 117 132 136 141 155 174 169 159 154 163 171 151 166 190 161 175 164 163 170 153 170 141 115 137 116 136 129 93 121 257 295 23 9 332 300 347 341 339 322 303 320 315 302 300 310 324 332 334 337 336 335 335 334 332 332 332 334 334 334 335 337 340 341
115 113 99 84 63 86 104 90 87 97 86 81 97 103 104 108 143 147 157 175 174 150 141 150 169 189 160 152 196 187 171 150 136 160 136 145 127 137 129 237 254 289 328 354 17 310 323 2 360 329 304 332 322 314 317 321 326 331 337 338 338 338 336 334 334 334 335 336 338 339 339 339 339 338
127 132 136 128 105 64 81 103 102 99 98 102 99 93 92 113 108 106 123 121 129 149 151 151 166 205 163 162 169 169 145 150 162 153 115 125 138 176 208 216 229 257 259 107 144 308 317 19 356 334 324 342 317 292 295 309 324 335 337 340 340 339 335 333 332 334 335 336 338 340 341 340 339 338
133 138 134 129 126 128 110 109 124 112 104 96 91 89 76 58 41 70 85 101 121 118 115 130 136 147 174 135 136 142 163 175 135 139 123 179 228 258 292 265 249 270 215 165 98 321 293 10 341 310 308 327 307 282 298 307 330 334 335 338 340 336 333 331 330 331 334 336 337 338 339 340 341 339
137 138 142 137 131 127 123 120 114 111 111 97 96 89 81 63 52 37 357 344 58 96 114 117 120 139 160 144 151 154 156 125 94 100 84 75 10 30 33 346 317 295 200 234 155 198 274 120 344 298 307 310 297 299 287 311 333 331 329 332 336 336 333 332 330 330 332 334 336 337 338 339 340 339
142 146 148 141 134 125 133 128 126 129 119 104 105 106 90 61 66 50 28 45 56 68 81 91 99 113 129 132 142 149 152 137 140 122 118 71 343 31 16 331 336 320 227 211 198 145 288 229 294 302 294 313 289 287 286 304 323 324 322 328 334 335 334 333 332 331 332 334 335 336 337 338 338 336
147 159 154 138 130 135 138 136 132 136 125 109 116 109 103 103 93 67 23 58 51 61 74 79 90 126 138 138 143 155 167 178 188 155 355 151 132 71 154 323 289 293 304 225 166 214 248 322 152 297 297 304 232 253 270 301 315 319 322 326 330 335 337 336 333 332 332 332 333 335 339 339 336 336
145 155 147 134 135 140 145 148 147 141 113 120 123 119 107 105 138 184 111 110 90 62 65 323 100 193 179 164 186 214 203 201 206 218 232 138 233 284 248 246 306 321 340 299 207 324 286 322 66 71 334 308 264 266 280 298 311 314 320 330 331 341 342 333 331 332 330 332 332 336 341 343 338 336
158 157 153 147 145 145 150 150 146 137 76 103 105 127 121 118 186 179 173 238 118 163 225 293 324 285 352 341 259 238 199 212 221 203 197 198 201 242 257 218 218 241 254 225 224 301 278 116 290 128 248 310 308 313 337 316 321 313 332 341 333 340 338 334 333 331 333 335 336 341 347 348 349 344
161 168 171 165 153 151 150 148 149 159 141 94 103 167 159 179 166 130 188 218 203 148 47 334 316 309 332 325 331 301 246 230 221 207 203 201 209 208 227 221 217 246 250 246 196 325 283 284 311 105 27 200 263 314 305 293 297 302 342 342 328 335 339 337 337 335 339 337 337 343 351 350 356 2
171 172 169 172 171 151 135 149 160 176 167 157 270 81 10 6 133 148 90 58 96 102 102 211 247 296 331 305 294 307 298 308 273 217 208 206 213 235 241 224 224 255 278 130 177 206 295 300 194 330 312 297 278 217 301 305 290 308 329 329 336 326 345 335 338 338 337 336 332 348 342 347 356 360
171 167 171 166 141 143 134 119 145 152 152 170 204 184 187 199 278 140 78 55 39 21 10 104 166 303 9 319 307 317 318 300 317 289 268 276 226 235 242 243 249 255 301 307 262 232 188 258 173 301 297 255 279 295 240 289 316 333 328 338 325 316 343 343 344 331 332 334 331 339 341 352 359 356
152 147 130 108 120 117 113 96 75 90 132 170 216 186 168 163 198 214 125 105 107 115 89 123 6 39 16 338 324 327 316 327 326 321 356 342 246 238 252 234 238 254 271 282 290 227 182 220 286 216 235 272 276 288 311 279 262 293 334 320 318 338 9 2 342 332 330 332 330 345 352 356 360 1
132 115 116 118 113 101 91 94 84 65 84 111 126 149 164 170 172 194 162 141 146 155 163 188 60 346 327 302 294 323 317 311 345 348 349 356 37 5 21 63 22 325 272 327 15 82 150 215 267 278 234 226 238 263 234 291 312 328 353 340 344 337 340 350 350 347 340 338 347 350 359 353 5 6
115 116 115 112 109 108 110 101 98 101 108 113 142 165 180 177 175 171 154 160 170 184 165 119 69 35 26 16 339 355 16 33 18 343 340 7 13 356 354 25 22 44 78 1 45 42 40 23 289 266 263 232 216 271 260 303 324 343 345 355 323 299 359 350 346 345 346 342 342 350 356 4 17 12
109 118 123 124 126 128 129 121 136 141 132 110 101 91 155 162 170 172 184 186 181 158 130 128 111 71 50 50 39 24 14 14 1 3 343 28 355 339 344 43 12 344 5 49 36 21 9 358 353 275 301 313 302 219 304 227 323 350 347 352 356 358 331 342 350 353 349 339 329 348 5 11 13 15
120 119 113 107 110 120 112 118 98 98 105 115 121 132 134 136 137 125 108 87 83 92 113 105 85 46 40 44 20 17 24 10 344 338 13 22 349 332 321 56 344 327 330 356 2 9 12 356 341 323 267 301 295 338 23 94 48 5 342 358 347 340 357 357 350 351 347 331 342 351 4 14 13 13
114 114 110 116 130 129 131 135 135 126 118 89 101 125 132 120 114 105 113 100 86 97 84 72 74 72 68 61 34 12 32 12 345 332 6 3 353 308 39 73 34 6 345 349 349 346 350 341 338 321 312 321 328 328 343 5 16 4 2 1 356 358 358 356 355 350 347 1 358 342 351 7 18 16
126 126 129 142 148 142 137 137 145 150 131 116 98 86 105 97 83 88 87 100 123 103 115 131 119 112 99 87 51 94 59 337 27 2 26 356 339 43 24 47 34 9 16 0 358 352 340 341 333 2 131 60 64 45 31 48 23 8 4 5 8 360 356 352 351 352 354 1 347 346 351 356 8 14
126 136 137 143 143 139 134 137 148 151 131 119 106 92 71 65 100 112 120 136 128 113 111 97 111 130 126 148 165 77 49 101 351 26 19 31 22 45 33 52 23 21 17 21 11 0 346 352 347 353 11 51 95 81 56 48 64 23 2 16 8 1 356 353 347 352 355 355 0 355 344 353 2 7
122 131 136 142 149 141 136 147 151 145 139 148 149 159 111 67 40 74 77 61 74 105 125 126 124 122 132 129 96 65 66 89 62 25 18 19 36 49 64 58 51 35 34 30 12 4 359 11 8 16 10 1 3 359 76 62 56 28 21 6 8 2 359 355 355 355 3 0 358 356 353 350 353 2
125 136 137 144 150 147 147 160 162 167 149 148 127 79 74 46 25 69 92 100 88 104 111 96 87 93 97 105 93 76 53 52 59 36 32 10 34 48 56 56 49 33 42 32 16 14 14 21 18 26 9 6 3 342 339 121 57 45 25 11 3 5 359 0 4 10 7 0 353 360 350 352 1 3
138 137 136 140 161 164 153 144 131 121 111 89 80 71 65 71 77 73 78 86 83 80 65 76 77 76 77 81 96 79 67 56 72 56 43 27 40 41 38 37 33 30 39 36 28 24 20 23 22 17 6 5 329 338 333 357 31 29 27 19 11 357 4 8 13 5 359 2 359 349 346 356 2 6
134 136 133 148 125 93 92 105 115 107 97 86 80 87 96 105 103 81 75 81 83 75 74 73 57 44 63 65 69 85 86 74 60 53 48 43 38 46 35 32 33 31 33 36 26 28 22 26 15 6 2 340 329 322 328 321 29 24 21 25 17 8 10 11 11 3 359 360 355 348 346 342 340 359
101 98 97 93 110 133 119 105 78 77 76 79 99 116 118 109 94 96 89 82 79 69 72 70 71 67 56 52 72 81 70 67 67 58 54 51 44 44 47 34 39 22 41 34 26 22 23 18 8 0 340 325 301 303 302 323 86 24 13 20 19 18 13 14 22 12 2 2 349 352 349 350 359 358
97 97 97 114 96 70 68 61 72 76 79 84 87 91 93 106 96 87 92 90 94 90 80 63 57 62 53 47 45 79 85 67 59 57 55 61 55 50 38 37 46 27 42 40 28 25 21 7 344 321 329 337 341 64 44 29 14 359 3 359 8 13 17 21 29 26 14 359 358 356 358 357 351 356
100 81 55 41 49 40 57 66 60 75 79 84 94 98 98 89 89 89 87 79 77 77 72 67 63 72 67 58 67 71 77 76 71 58 52 52 59 53 44 44 48 31 42 41 27 20 5 359 357 11 21 16 21 45 54 34 5 357 355 357 358 4 14 21 24 31 29 15 9 7 3 359 1 3
81 81 73 64 63 65 69 78 80 90 91 89 88 93 96 88 83 78 78 72 71 75 81 81 77 74 72 66 63 68 81 74 72 71 65 57 58 58 54 45 43 40 43 43 30 23 14 12 15 17 27 39 31 47 57 29 17 3 358 2 2 357 359 14 21 19 29 30 24 19 15 7 359 5
93 89 80 73 72 70 72 87 94 94 97 97 97 89 85 95 87 68 69 82 88 89 85 86 77 76 76 76 77 68 66 72 72 74 71 67 61 61 62 56 50 43 38 32 28 28 16 23 22 18 35 37 23 34 35 23 23 13 5 0 352 360 2 358 358 8 18 34 27 16 13 13 12 13
87 86 85 78 74 70 71 81 90 91 90 92 92 93 95 86 85 87 82 86 87 87 83 82 81 74 76 71 76 78 73 76 78 75 74 69 63 62 62 60 58 51 43 24 24 21 19 20 25 24 47 44 37 35 28 37 26 13 5 4 1 360 2 356 355 4 1 7 18 12 10 10 9 11